Location: Winnipeg
(49.8830°N, 97.1670°W)
Time: 10:37:49
(UTC-06:00)

ISS - Visible Passes

Search period start: 25 January 2021 00:00
Search period end: 04 February 2021 00:00
Orbit: 418 x 421 km, 51.6° (Epoch: 25 January)

Date Brightness Start Highest point End Pass type
(mag) Time Alt. Az. Time Alt. Az. Time Alt. Az.
25 Jan -3.8 18:44:14 10° W 18:47:37 77° NNW 18:48:54 35° ENE visible
25 Jan -0.6 20:21:14 10° WNW 20:21:52 15° WNW 20:21:52 15° WNW visible
26 Jan -3.7 17:56:50 10° WSW 18:00:14 88° SSE 18:03:28 11° ENE visible
26 Jan -2.8 19:33:49 10° W 19:36:26 46° NW 19:36:26 46° NW visible
27 Jan -3.6 18:46:24 10° W 18:49:46 62° N 18:51:00 34° ENE visible
27 Jan -0.6 20:23:19 10° WNW 20:23:58 15° WNW 20:23:58 15° WNW visible
28 Jan -3.6 17:58:57 10° W 18:02:19 67° N 18:05:35 11° ENE visible
28 Jan -2.9 19:35:55 10° WNW 19:38:33 50° WNW 19:38:33 50° WNW visible
29 Jan -3.7 18:48:30 10° WNW 18:51:52 67° N 18:53:09 34° E visible
29 Jan -0.6 20:25:23 10° WNW 20:26:07 15° W 20:26:07 15° W visible
30 Jan -3.6 18:01:02 10° W 18:04:25 62° N 18:07:47 10° E visible
30 Jan -3.1 19:37:56 10° WNW 19:40:45 55° WSW 19:40:45 55° WSW visible
31 Jan -3.8 18:50:30 10° WNW 18:53:54 88° SSW 18:55:27 30° ESE visible
31 Jan -0.6 20:27:37 10° W 20:28:26 15° W 20:28:26 15° W visible
01 Feb -3.7 18:03:03 10° WNW 18:06:27 77° NNE 18:09:50 10° E visible
01 Feb -2.5 19:40:00 10° W 19:43:07 35° SSW 19:43:12 35° SSW visible
02 Feb -3.0 18:52:29 10° WNW 18:55:45 49° SSW 18:58:05 17° SE visible
02 Feb -0.4 20:30:56 10° WSW 20:31:04 10° WSW 20:31:04 10° WSW visible
03 Feb -3.4 18:04:59 10° WNW 18:08:21 68° SSW 18:11:43 10° ESE visible
03 Feb -1.2 19:42:28 10° W 19:44:43 17° SW 19:46:06 13° SSW visible
